Dewpoint
71 67 67 69 70 70 72 72 69 68 71 71 70 71 73 71 70 69 71 76 76 77 77 76 75 74 73 73 73 73 73 72 73 73 73 73 73 74 73 73 74 74 74
70 67 67 68 70 68 70 72 71 68 70 70 68 67 67 69 70 69 68 72 76 77 77 77 76 76 75 75 75 75 75 75 75 74 74 74 75 75 75 75 75 74 74
68 67 70 67 69 70 65 68 69 69 69 72 68 68 67 67 68 63 70 72 74 77 78 78 77 77 76 75 75 75 75 75 75 75 75 75 74 74 75 75 75 75 75
70 68 71 69 71 70 69 66 66 65 66 68 68 66 66 65 66 69 71 72 72 72 77 77 77 77 76 75 75 76 74 75 74 75 75 74 74 75 75 75 75 74 74
70 72 69 70 69 70 68 69 65 68 67 64 65 64 67 67 65 66 69 68 71 73 73 74 76 76 76 75 76 76 76 75 75 74 74 74 75 75 75 75 74 74 74
70 70 71 69 71 69 66 66 65 71 67 65 62 65 67 68 65 68 70 71 72 72 72 73 73 73 75 75 77 76 75 76 75 74 74 74 74 75 75 74 74 74 74
70 71 71 71 71 67 65 61 67 69 67 70 67 66 65 67 65 67 67 71 71 68 68 73 72 73 71 74 76 76 76 75 75 75 74 74 74 74 74 74 73 73 74
69 70 70 71 72 69 70 70 70 70 70 70 68 64 63 65 66 64 69 71 71 68 67 70 69 68 71 72 72 76 76 76 75 74 74 74 74 74 74 73 73 73 73
70 70 71 73 70 72 71 68 67 68 68 69 68 67 63 62 65 66 68 70 68 68 68 72 67 68 67 70 73 76 76 75 76 75 75 74 74 74 74 73 73 72 72
72 70 71 72 68 73 69 67 70 71 68 68 69 69 68 66 62 61 65 67 67 67 67 71 70 68 66 71 72 71 75 74 75 76 76 75 75 74 74 73 73 73 72
71 71 72 71 71 72 72 69 70 69 71 70 69 69 66 64 66 66 62 64 65 67 69 71 71 69 69 67 70 68 70 74 74 75 76 76 75 74 74 73 73 73 72
71 71 72 72 71 72 71 71 71 70 70 70 70 70 67 64 63 63 63 63 61 60 69 71 71 70 69 70 71 72 71 74 73 74 75 75 75 75 74 74 73 72 70
68 70 72 73 72 72 72 72 71 70 70 69 70 69 70 67 67 66 63 61 60 62 62 70 71 69 70 71 73 72 73 72 72 72 73 73 74 74 75 74 73 71 70
68 70 71 73 72 72 72 72 72 70 71 72 69 68 68 69 68 66 65 64 62 63 63 65 72 72 73 73 74 73 72 71 71 71 71 72 72 73 73 73 72 71 71
70 68 70 72 74 72 73 72 72 70 72 71 70 70 69 69 69 68 68 68 64 60 60 65 65 73 74 75 74 72 71 71 70 70 70 70 70 71 72 71 70 69 69
69 69 72 73 72 72 72 72 72 71 72 72 71 71 71 70 70 70 70 69 68 64 63 65 66 71 73 74 74 73 72 71 70 70 69 69 69 70 70 69 68 68 68
68 70 71 72 72 72 72 73 72 70 70 71 71 71 71 71 70 69 69 71 70 69 66 66 67 71 71 72 72 74 74 71 70 69 68 68 68 69 68 68 67 66 66
70 70 71 70 71 71 72 72 71 70 70 70 71 71 71 70 70 71 72 70 70 69 69 67 68 68 71 72 72 72 72 73 70 69 68 67 67 67 66 66 65 65 65
69 69 70 72 71 71 71 72 72 71 70 70 71 72 71 71 70 70 70 70 70 71 70 69 68 69 69 71 71 72 72 72 70 69 67 66 66 66 65 64 63 62 61
71 70 70 71 72 73 73 72 72 72 72 72 72 72 72 72 70 70 71 70 70 70 69 69 68 68 69 68 71 69 69 68 66 69 68 67 66 66 64 63 62 61 59
71 71 70 72 73 72 72 72 72 72 72 72 72 73 73 72 71 70 70 70 70 70 69 68 68 67 68 68 67 68 68 70 68 67 66 64 64 63 64 63 63 63 60
73 72 72 72 72 73 65 66 67 68 69 70 70 72 72 71 71 69 68 68 70 70 69 69 68 67 67 67 68 67 67 67 65 69 66 64 64 62 63 62 62 61 59
71 74 72 73 73 68 63 64 65 66 68 69 69 69 70 70 69 69 67 66 66 65 66 69 68 68 68 68 67 67 67 67 65 67 67 64 65 61 63 63 61 59 58
73 74 74 74 70 64 62 61 60 62 61 62 62 62 61 62 62 62 62 63 63 64 65 67 67 68 69 69 69 69 67 67 68 68 69 63 61 57 57 59 59 59 58
74 74 74 72 63 62 61 58 59 58 58 58 58 58 59 60 61 59 60 61 60 60 60 60 61 62 63 64 65 68 68 66 66 66 67 61 57 54 54 54 56 56 55
72 72 69 70 66 62 60 58 58 58 56 56 56 56 58 56 55 55 56 56 55 57 58 59 59 60 62 64 64 67 68 66 63 63 63 56 55 54 50 53 53 52 52
Lifted_Index
-2 -1 -0 -0 -1 -2 -2 -3 -3 -3 -3 -2 -2 -2 -3 -2 -2 -2 -3 -4 -6 -6 -7 -7 -6 -5 -5 -5 -5 -4 -4 -3 -3 -3 -3 -3 -3 -4 -4 -4 -4 -4 -4
-1 -1 -0 -1 -1 -1 -2 -2 -3 -3 -3 -2 -1 -2 -2 -2 -2 -2 -3 -4 -5 -6 -7 -7 -6 -6 -5 -5 -5 -5 -4 -4 -4 -3 -3 -3 -3 -4 -4 -4 -4 -3 -3
-1 -1 -1 -1 -1 -2 -1 -1 -2 -2 -2 -2 -1 -1 -1 -2 -2 -2 -3 -4 -4 -5 -6 -7 -7 -6 -5 -5 -5 -5 -5 -4 -4 -4 -3 -3 -3 -3 -4 -4 -3 -3 -3
-1 -1 -1 -1 -1 -2 -2 -1 -2 -2 -2 -1 -1 -1 -1 -1 -2 -2 -3 -3 -4 -4 -5 -6 -6 -6 -5 -5 -5 -5 -5 -5 -4 -4 -3 -3 -3 -3 -3 -3 -3 -3 -3
-1 -1 -1 -1 -1 -2 -2 -2 -2 -2 -2 -1 -1 -1 -1 -1 -1 -2 -2 -3 -3 -3 -4 -4 -5 -5 -5 -5 -6 -6 -5 -5 -4 -4 -3 -3 -3 -3 -3 -3 -3 -3 -3
-1 -1 -2 -1 -1 -1 -1 -1 -2 -2 -2 -2 -1 -1 -1 -1 -1 -2 -2 -3 -3 -3 -3 -3 -3 -4 -4 -5 -5 -5 -5 -5 -4 -4 -3 -3 -3 -3 -3 -3 -3 -3 -3
-1 -1 -2 -2 -2 -1 -1 -1 -2 -2 -2 -2 -2 -2 -1 -1 -1 -1 -2 -3 -3 -2 -2 -2 -2 -3 -3 -4 -5 -5 -5 -5 -5 -4 -4 -3 -3 -3 -3 -3 -3 -3 -3
-2 -2 -2 -2 -2 -2 -1 -1 -2 -2 -2 -2 -2 -2 -2 -1 -1 -2 -2 -3 -2 -1 -1 -1 -2 -2 -2 -3 -4 -5 -5 -5 -5 -4 -4 -3 -3 -3 -3 -2 -2 -2 -2
-3 -3 -3 -3 -3 -2 -2 -2 -2 -2 -2 -3 -3 -3 -3 -2 -2 -2 -2 -2 -2 -1 -1 -1 -1 -1 -1 -2 -4 -4 -5 -5 -5 -4 -4 -4 -3 -3 -3 -2 -2 -2 -1
-3 -3 -3 -3 -3 -3 -3 -2 -3 -3 -3 -3 -3 -3 -3 -2 -2 -2 -2 -2 -1 -1 -1 -2 -2 -1 -0 -2 -3 -3 -4 -4 -4 -5 -4 -4 -3 -3 -3 -2 -2 -1 -1
-3 -4 -4 -4 -4 -4 -4 -3 -3 -3 -3 -3 -3 -3 -3 -2 -2 -2 -2 -2 -1 -1 -1 -2 -2 -1 -1 -1 -2 -2 -3 -3 -4 -4 -4 -4 -3 -3 -3 -3 -2 -2 -1
-3 -4 -4 -4 -4 -4 -4 -4 -4 -3 -3 -3 -3 -3 -3 -3 -3 -3 -2 -2 -1 -1 -2 -2 -2 -2 -2 -1 -2 -2 -2 -3 -4 -4 -4 -4 -4 -3 -3 -3 -2 -1 -1
-3 -4 -4 -5 -5 -5 -4 -4 -4 -4 -3 -3 -3 -3 -3 -3 -3 -3 -3 -3 -2 -2 -2 -2 -3 -3 -3 -3 -3 -3 -2 -2 -3 -3 -4 -4 -3 -3 -3 -3 -2 -1 -1
-3 -4 -4 -5 -5 -5 -5 -4 -4 -4 -4 -4 -3 -3 -3 -3 -3 -3 -3 -3 -3 -2 -2 -2 -3 -4 -4 -4 -4 -3 -2 -2 -2 -2 -3 -3 -3 -3 -3 -2 -1 -0 0
-3 -4 -4 -5 -5 -5 -5 -5 -4 -4 -4 -4 -4 -3 -3 -3 -3 -3 -3 -3 -3 -3 -2 -2 -3 -4 -5 -5 -5 -4 -3 -2 -2 -2 -2 -2 -2 -2 -2 -1 -1 0 1
-4 -4 -4 -5 -5 -5 -5 -5 -5 -4 -4 -4 -4 -4 -4 -4 -4 -4 -4 -4 -4 -3 -3 -3 -3 -4 -4 -5 -5 -4 -3 -3 -2 -2 -2 -2 -2 -1 -1 -1 -0 1 1
-4 -4 -5 -5 -5 -5 -5 -5 -5 -4 -4 -4 -4 -4 -4 -4 -4 -4 -4 -4 -4 -4 -3 -3 -3 -3 -4 -4 -4 -4 -4 -3 -3 -2 -2 -2 -1 -1 -1 -1 -0 0 1
-4 -4 -4 -5 -5 -5 -5 -5 -5 -4 -4 -4 -4 -4 -4 -4 -4 -4 -4 -4 -4 -4 -3 -3 -3 -3 -3 -4 -4 -4 -4 -4 -3 -3 -2 -2 -1 -1 -1 -1 -0 0 1
-4 -4 -4 -4 -5 -5 -5 -5 -5 -5 -4 -4 -4 -4 -4 -4 -4 -4 -4 -4 -4 -4 -3 -3 -3 -3 -3 -3 -3 -4 -4 -4 -3 -3 -2 -2 -1 -1 -1 -1 -1 0 1
-4 -4 -4 -4 -5 -5 -5 -5 -5 -5 -5 -5 -5 -5 -5 -5 -5 -4 -4 -4 -4 -4 -3 -3 -3 -3 -3 -3 -3 -3 -4 -4 -3 -3 -3 -2 -2 -1 -1 -1 -1 -0 1
-5 -5 -5 -5 -6 -6 -6 -6 -6 -6 -5 -5 -5 -5 -5 -5 -5 -4 -4 -4 -4 -4 -3 -3 -3 -3 -3 -3 -3 -3 -3 -3 -3 -2 -2 -2 -2 -2 -2 -2 -1 -0 0
-6 -6 -6 -6 -6 -7 -7 -6 -6 -5 -5 -4 -5 -5 -5 -5 -5 -4 -4 -3 -3 -3 -3 -3 -3 -3 -3 -2 -2 -2 -3 -3 -2 -2 -1 -2 -2 -1 -1 -1 -1 -0 1
-7 -7 -7 -7 -7 -7 -6 -6 -5 -4 -3 -4 -4 -4 -4 -4 -4 -3 -2 -1 -1 -1 -1 -2 -2 -2 -2 -2 -2 -2 -2 -2 -2 -1 -1 -2 -1 -1 -1 -0 -0 1 2
-8 -8 -7 -7 -7 -6 -5 -5 -4 -3 -3 -3 -3 -2 -2 -1 -0 1 2 2 3 2 2 2 1 0 -1 -2 -2 -2 -2 -2 -2 -2 -2 -2 -1 -0 0 1 1 2 3
-8 -8 -7 -7 -6 -5 -4 -4 -3 -3 -2 -1 0 1 3 4 5 5 6 6 6 6 6 6 5 4 2 1 -1 -1 -2 -2 -2 -2 -2 -2 -1 0 1 2 2 3 4
-8 -7 -6 -6 -5 -5 -4 -3 -3 -2 -1 1 3 5 6 7 8 8 8 8 8 8 8 8 7 7 5 3 1 -0 -1 -2 -1 -1 -2 -1 -1 1 2 3 3 4 5